When you browse on this site, cookies collect data to enhance your experience and personalize the content and advertising you see.
Visit our Privacy Policy to learn more. By continuing to use the site, you agree to this use of cookies and data.
  • In Latvia
  • List of Countries
  • For 7 days
  • Water Temperature
  • Satellite Maps
  • Weather Map
  • Weather Widgets
  • user-avatar
    Login

    Hourly Weather Nakhchivan

    Today, 17 July, Wednesday

    Time Temperature Precipitation Wind Pressure Humidity
    00:00 +28°C° 0 mm 3 mps 683 mmHg 40%
    01:00 +28°C° 0 mm 2 mps 683 mmHg 42%
    02:00 +27°C° 0 mm 2 mps 682 mmHg 45%
    03:00 +26°C° 0 mm 1 mps 682 mmHg 48%
    04:00 +26°C° 0 mm 1 mps 682 mmHg 48%
    05:00 +26°C° 0 mm 1 mps 682 mmHg 47%
    06:00 +26°C° 0 mm 1 mps 683 mmHg 47%
    07:00 +27°C° 0 mm 1 mps 683 mmHg 44%
    08:00 +28°C° 0 mm 1 mps 683 mmHg 40%
    09:00 +29°C° 0 mm 1 mps 683 mmHg 36%
    10:00 +31°C° 0 mm 1 mps 683 mmHg 32%
    11:00 +33°C° 0 mm 1 mps 683 mmHg 28%
    12:00 +35°C° 0 mm 2 mps 683 mmHg 24%
    13:00 +36°C° 0 mm 2 mps 683 mmHg 22%
    14:00 +38°C° 0 mm 3 mps 682 mmHg 19%
    15:00 +39°C° 0 mm 3 mps 682 mmHg 16%
    16:00 +40°C° 0 mm 4 mps 682 mmHg 17%
    17:00 +40°C° 0 mm 4 mps 682 mmHg 18%
    18:00 +39°C° 0 mm 5 mps 682 mmHg 18%
    19:00 +36°C° 0 mm 5 mps 683 mmHg 25%
    20:00 +34°C° 0 mm 4 mps 683 mmHg 31%
    21:00 +31°C° 0 mm 3 mps 683 mmHg 38%
    22:00 +30°C° 0 mm 3 mps 683 mmHg 39%
    23:00 +29°C° 0 mm 3 mps 683 mmHg 41%

    Tomorrow, 18 July, Thursday

    Time Temperature Precipitation Wind Pressure Humidity
    00:00 +28°C° 0 mm 2 mps 683 mmHg 43%
    01:00 +27°C° 0 mm 2 mps 683 mmHg 44%
    02:00 +27°C° 0 mm 2 mps 682 mmHg 46%
    03:00 +26°C° 0 mm 1 mps 682 mmHg 48%
    04:00 +26°C° 0 mm 1 mps 683 mmHg 47%
    05:00 +27°C° 0 mm 1 mps 683 mmHg 47%
    06:00 +27°C° 0 mm 1 mps 683 mmHg 46%
    07:00 +28°C° 0 mm 1 mps 683 mmHg 42%
    08:00 +30°C° 0 mm 1 mps 684 mmHg 37%
    09:00 +32°C° 0 mm 1 mps 684 mmHg 33%
    10:00 +34°C° 0 mm 2 mps 684 mmHg 28%
    11:00 +36°C° 0 mm 2 mps 684 mmHg 23%
    12:00 +38°C° 0 mm 2 mps 684 mmHg 18%
    13:00 +39°C° 0 mm 3 mps 683 mmHg 15%
    14:00 +41°C° 0 mm 4 mps 683 mmHg 11%
    15:00 +43°C° 0 mm 5 mps 683 mmHg 8%
    16:00 +42°C° 0 mm 6 mps 683 mmHg 9%
    17:00 +43°C° 0 mm 7 mps 683 mmHg 9%
    18:00 +43°C° 0 mm 7 mps 683 mmHg 9%
    19:00 +39°C° 0 mm 6 mps 683 mmHg 14%
    20:00 +36°C° 0 mm 4 mps 683 mmHg 19%
    21:00 +34°C° 0 mm 3 mps 683 mmHg 24%
    22:00 +32°C° 0 mm 2 mps 684 mmHg 26%
    23:00 +30°C° 0 mm 2 mps 684 mmHg 29%

    Day after tomorrow, 19 July, Friday

    Time Temperature Precipitation Wind Pressure Humidity
    00:00 +29°C° 0 mm 2 mps 684 mmHg 31%
    01:00 +29°C° 0 mm 1 mps 684 mmHg 33%
    02:00 +28°C° 0 mm 1 mps 684 mmHg 35%
    03:00 +25°C° 0 mm 0 mps 683 mmHg 36%
    04:00 +25°C° 0 mm 0 mps 684 mmHg 35%
    05:00 +26°C° 0 mm 0 mps 684 mmHg 34%
    06:00 +26°C° 0 mm 0 mps 684 mmHg 33%
    07:00 +29°C° 0 mm 1 mps 685 mmHg 30%
    08:00 +31°C° 0 mm 2 mps 685 mmHg 26%
    09:00 +32°C° 0 mm 2 mps 685 mmHg 22%
    10:00 +34°C° 0 mm 2 mps 685 mmHg 21%
    11:00 +36°C° 0 mm 2 mps 685 mmHg 19%
    12:00 +36°C° 0 mm 1 mps 685 mmHg 17%
    13:00 +37°C° 0 mm 1 mps 685 mmHg 16%
    14:00 +39°C° 0 mm 2 mps 684 mmHg 14%
    15:00 +40°C° 0 mm 2 mps 684 mmHg 13%
    16:00 +40°C° 0 mm 2 mps 684 mmHg 15%
    17:00 +39°C° 0 mm 3 mps 685 mmHg 16%
    18:00 +39°C° 0 mm 3 mps 685 mmHg 18%
    19:00 +37°C° 0 mm 3 mps 685 mmHg 23%
    20:00 +35°C° 0 mm 3 mps 685 mmHg 29%
    21:00 +33°C° 0 mm 4 mps 686 mmHg 35%
    22:00 +31°C° 0 mm 3 mps 686 mmHg 37%
    23:00 +30°C° 0 mm 2 mps 686 mmHg 40%

    20 July, Saturday

    Time Temperature Precipitation Wind Pressure Humidity
    00:00 +29°C° 0 mm 2 mps 686 mmHg 42%
    01:00 +28°C° 0 mm 2 mps 686 mmHg 44%
    02:00 +28°C° 0 mm 1 mps 687 mmHg 46%
    03:00 +27°C° 0 mm 1 mps 687 mmHg 49%
    04:00 +27°C° 0 mm 1 mps 687 mmHg 49%
    05:00 +27°C° 0 mm 1 mps 687 mmHg 49%
    06:00 +27°C° 0 mm 1 mps 688 mmHg 49%
    07:00 +28°C° 0 mm 1 mps 688 mmHg 44%
    08:00 +30°C° 0 mm 2 mps 688 mmHg 40%
    09:00 +31°C° 0 mm 2 mps 688 mmHg 36%
    10:00 +34°C° 0 mm 2 mps 688 mmHg 31%
    11:00 +36°C° 0 mm 3 mps 689 mmHg 27%
    12:00 +37°C° 0 mm 4 mps 689 mmHg 23%
    13:00 +38°C° 0 mm 4 mps 689 mmHg 21%
    14:00 +40°C° 0 mm 5 mps 688 mmHg 20%
    15:00 +41°C° 0 mm 5 mps 688 mmHg 18%
    16:00 +41°C° 0 mm 6 mps 688 mmHg 20%
    17:00 +40°C° 0 mm 6 mps 688 mmHg 21%
    18:00 +39°C° 0 mm 7 mps 688 mmHg 22%
    19:00 +36°C° 0 mm 6 mps 688 mmHg 26%
    20:00 +34°C° 0 mm 5 mps 688 mmHg 30%
    21:00 +31°C° 0 mm 3 mps 689 mmHg 34%
    22:00 +30°C° 0 mm 3 mps 689 mmHg 36%
    23:00 +29°C° 0 mm 3 mps 689 mmHg 38%

    21 July, Sunday

    Time Temperature Precipitation Wind Pressure Humidity
    00:00 +28°C° 0 mm 3 mps 689 mmHg 40%
    01:00 +28°C° 0 mm 2 mps 689 mmHg 42%
    02:00 +27°C° 0 mm 2 mps 688 mmHg 44%
    03:00 +26°C° 0 mm 1 mps 688 mmHg 45%
    04:00 +26°C° 0 mm 1 mps 688 mmHg 45%
    05:00 +27°C° 0 mm 1 mps 688 mmHg 44%
    06:00 +27°C° 0 mm 1 mps 688 mmHg 44%
    07:00 +28°C° 0 mm 2 mps 688 mmHg 40%
    08:00 +30°C° 0 mm 2 mps 689 mmHg 35%
    09:00 +32°C° 0 mm 2 mps 689 mmHg 31%
    10:00 +35°C° 0 mm 3 mps 689 mmHg 27%
    11:00 +37°C° 0 mm 3 mps 689 mmHg 23%
    12:00 +40°C° 0 mm 4 mps 689 mmHg 19%
    13:00 +42°C° 0 mm 4 mps 688 mmHg 18%
    14:00 +43°C° 0 mm 4 mps 688 mmHg 16%
    15:00 +45°C° 0 mm 5 mps 688 mmHg 14%
    16:00 +43°C° 0 mm 5 mps 687 mmHg 15%
    17:00 +43°C° 0 mm 5 mps 687 mmHg 16%
    18:00 +42°C° 0 mm 5 mps 687 mmHg 17%
    19:00 +40°C° 0 mm 4 mps 687 mmHg 21%
    20:00 +37°C° 0 mm 3 mps 687 mmHg 26%
    21:00 +34°C° 0 mm 3 mps 687 mmHg 30%
    22:00 +33°C° 0 mm 3 mps 687 mmHg 31%
    23:00 +31°C° 0 mm 3 mps 687 mmHg 33%

    22 July, Monday

    Time Temperature Precipitation Wind Pressure Humidity
    00:00 +30°C° 0 mm 3 mps 686 mmHg 34%
    01:00 +30°C° 0 mm 2 mps 686 mmHg 36%
    02:00 +29°C° 0 mm 2 mps 686 mmHg 37%
    03:00 +28°C° 0 mm 1 mps 685 mmHg 39%
    04:00 +28°C° 0 mm 1 mps 686 mmHg 39%
    05:00 +29°C° 0 mm 1 mps 686 mmHg 38%
    06:00 +27°C° 0 mm 0 mps 686 mmHg 38%
    07:00 +30°C° 0 mm 1 mps 686 mmHg 35%
    08:00 +32°C° 0 mm 1 mps 686 mmHg 31%
    09:00 +33°C° 0 mm 1 mps 686 mmHg 28%
    10:00 +35°C° 0 mm 1 mps 686 mmHg 24%
    11:00 +37°C° 0 mm 1 mps 686 mmHg 21%
    12:00 +40°C° 0 mm 1 mps 686 mmHg 18%
    13:00 +43°C° 0 mm 3 mps 686 mmHg 16%
    14:00 +45°C° 0 mm 4 mps 686 mmHg 13%
    15:00 +48°C° 0 mm 6 mps 686 mmHg 11%
    16:00 +46°C° 0 mm 6 mps 685 mmHg 14%
    17:00 +44°C° 0 mm 6 mps 685 mmHg 16%
    18:00 +42°C° 0 mm 6 mps 685 mmHg 19%
    19:00 +40°C° 0 mm 5 mps 685 mmHg 23%
    20:00 +36°C° 0 mm 5 mps 685 mmHg 27%
    21:00 +34°C° 0 mm 4 mps 685 mmHg 31%
    22:00 +33°C° 0 mm 4 mps 685 mmHg 33%
    23:00 +31°C° 0 mm 3 mps 685 mmHg 35%
    Show more